Content
SEND FEEDBACK

Daily
Averages
Monthly
Summary
The Bahamas

NASSAU, THE BAHAMAS


Home > Caribbean > The Bahamas
Elevation: 7 meters     Latitude: 25 03N     Longitude: 077 28W

WEATHER
 
SELECT A DAY
Number of Records: 163,939;   Date Range: 6/30/96 - 12/26/14
 
SHARE

PRINT THIS DATA

[ ← Previous Day ]
WEATHER ALMANAC - 17 JANUARY, 2013
[ Next Day → ]
[ °F ]   °C
Weather ElementAverageHighLow
Temperature20.8 °C26 °C (11:00 am) (1:55 am)
Dewpoint17.9 °C21.1 °C (1:00 am) (7:00 pm)
Humidity82.1 %94 % (1:00 am)69 % (12:00 pm)
Barometer1018.3 hPa1020.3 hPa (10:00 am)1016.6 hPa (2:00 pm)
Wind Speed4.2 km/h16.7 km/h (2:00 pm)
Weather ElementAverage
Visibility10.8 km
Wind DirectionENE (68 °)

Weather ElementTotal
Precipitation---
Heating Degree Days14.2 (Base 18.3)
Averaged from 30 records on 17 January, 2013
WEATHER CONDITIONS BREAKOUT
WIND DIRECTION BREAKOUT
WEATHER BY HOUR - 17 JANUARY, 2013
[ °F ]   °C
Local TimeTemperatureDewpointHumidityBarometerVisibilityWind DirectionWind SpeedGust SpeedPrecipitationEventsConditions
1:00 AM22.2 °C21.1 °C91 %1018.6 hPa12.9 kmCalmPartly Cloudy
1:00 AM22 °C21 °C94 %1018.3 hPa10 kmCalmScattered Clouds
1:55 AM-17.8 °C-17.8 °C1018.3 hPa10 kmCalmScattered Clouds
3:00 AM-17.8 °C-17.8 °C1017.9 hPa10 kmCalmScattered Clouds
4:00 AM20.6 °C19.4 °C92 %1017.9 hPa12.9 kmCalmPartly Cloudy
4:00 AM21 °C20 °C94 %1017.9 hPa10 kmCalmScattered Clouds
5:00 AM21 °C19 °C88 %1018.6 hPa9 kmCalmRainLight Rain Showers
6:00 AM21 °C20 °C94 %1018.3 hPa10 kmCalmMostly Cloudy
7:00 AM21.7 °C19.4 °C82 %1019 hPa12.9 kmCalmPartly Cloudy
7:00 AM22 °C19 °C83 %1019 hPa10 kmCalmScattered Clouds
8:00 AM22 °C21 °C94 %1019.3 hPa10 kmESE (120°)5.6 km/hRainLight Rain Showers
9:00 AM23 °C21 °C88 %1020 hPa10 kmESE (110°)3.7 km/hMostly Cloudy
10:00 AM25 °C21.1 °C74 %1020.3 hPa14.5 kmSE (140°)7.4 km/h
10:00 AM25 °C21 °C78 %1020.3 hPa10 kmSE (140°)7.4 km/hMostly Cloudy
11:00 AM26 °C21 °C74 %1019.6 hPa10 kmSE (130°)11.1 km/hMostly Cloudy
12:00 PM26 °C20 °C69 %1018.6 hPa10 kmESE (120°)14.8 km/hScattered Clouds
1:00 PM26 °C21 °C74 %1017.3 hPa10 kmESE (120°)14.8 km/hScattered Clouds
2:00 PM26 °C20 °C69 %1016.6 hPa10 kmSE (130°)16.7 km/hPartly Cloudy
3:00 PM26 °C20 °C69 %1016.9 hPa10 kmSSE (160°)7.4 km/hScattered Clouds
4:00 PM25.6 °C21.1 °C70 %1017.3 hPa14.5 kmSE (140°)9.3 km/hPartly Cloudy
4:00 PM26 °C21 °C74 %1017.3 hPa10 kmSE (140°)9.3 km/hScattered Clouds
5:00 PM25 °C20 °C74 %1017.6 hPa10 kmSSE (160°)7.4 km/hScattered Clouds
6:00 PM24 °C20 °C78 %1017.3 hPa10 kmEast (90°)7.4 km/hPartly Cloudy
7:00 PM24 °C21 °C83 %1017.9 hPa10 kmCalmPartly Cloudy
7:00 PM23.3 °C21.1 °C83 %1018.3 hPa14.5 kmCalmScattered Clouds
8:00 PM23 °C20 °C83 %1018.6 hPa10 kmCalmScattered Clouds
9:00 PM23 °C20 °C83 %1019 hPa10 kmCalmPartly Cloudy
10:00 PM22.8 °C21.1 °C87 %1018.3 hPa14.5 kmCalmPartly Cloudy
10:00 PM23 °C21 °C88 %1017.9 hPa10 kmCalmPartly Cloudy
11:00 PM22 °C20 °C88 %1017.9 hPa10 kmVariable1.9 km/hPartly Cloudy
Hourly data recorded from MYNN, located 0 kilometers away from Nassau, The Bahamas







STORIES FROM OUR PARTNERS